Flag Weather past 2 weeks in Leicester, England, United Kingdom

Now
45 °F

Fog.


Feels Like: 45 °F
Forecast: N/A
Wind: 2 mph from North

Location: East Midlands

Current Time: Nov 26, 2014 at 10:10:03 PM

Latest Report: Nov 26, 2014 at 9:20 PM


Visibility: 0 mi

Pressure: 29.77 "Hg

Humidity: 100%

Dew point: 45 °F

Location of LeicesterLocation

Historic Weather in Leicester — Graph

°F

Leicester temperature yesterday

Maximum temperature yesterday: 43 °F (at 8:20 PM)
Minimum temperature yesterday: 28 °F (at 6:50 AM)
Average temperature yesterday: 36 °F

Past Weeks' High & Low Weather Summary

 TemperatureHumidityPressure
High59 °F (Nov 22, 1:20 PM)100% (Nov 11, 10:20 PM)30.33 "Hg (Nov 11, 10:20 PM)
Low28 °F (Nov 25, 6:50 AM)77% (Nov 12, 1:50 PM)29.27 "Hg (Nov 12, 2:20 AM)
Average46 °F94%29.85 "Hg
* Reported Nov 11 8:20 PM — Nov 26 8:50 PM, Leicester, Weather by CustomWeather, © 2014

Note: Actual official high and low records may vary slightly from our data, if they occured in-between our weather recording intervals... More about our weather records

Advertising

Leicester weather history for previous 24 hours

 ConditionsComfort  
Time TempWeatherWind HumidityBarometerVisibility
8:50 PM
Nov 26
45 °FFog.2 mph100%29.77 "Hg1 mi
8:20 PM45 °FFog.3 mph100%29.77 "Hg1 mi
7:50 PM45 °FDrizzle. Fog.5 mph100%29.80 "Hg1 mi
7:20 PM45 °FDrizzle. Fog.5 mph100%29.80 "Hg1 mi
6:50 PM45 °FDrizzle. Fog.3 mph100%29.80 "Hg1 mi
6:20 PM45 °FDrizzle. Fog.3 mph100%29.80 "Hg1 mi
5:50 PM45 °FDrizzle. Fog.3 mph100%29.80 "Hg1 mi
5:20 PM45 °FDrizzle. Fog.5 mph100%29.80 "Hg1 mi
4:50 PM45 °FDrizzle. Fog.5 mph100%29.83 "Hg1 mi
4:20 PM45 °FDrizzle. Fog.3 mph100%29.83 "Hg1 mi
3:50 PM45 °FDrizzle. Fog.3 mph100%29.83 "Hg1 mi
3:20 PM45 °FDrizzle. Fog.3 mph100%29.83 "Hg1 mi
2:50 PM45 °FFog.6 mph100%29.83 "Hg1 mi
2:20 PM45 °FFog.6 mph100%29.83 "Hg1 mi
1:50 PM45 °FDrizzle. Fog.7 mph100%29.86 "Hg1 mi
1:20 PM45 °FDrizzle. Fog.7 mph100%29.86 "Hg1 mi
12:50 PM45 °FDrizzle. Fog.6 mph100%29.86 "Hg1 mi
12:20 PM45 °FDrizzle. Fog.8 mph100%29.86 "Hg1 mi
11:50 AM45 °FDrizzle. Fog.8 mph100%29.89 "Hg1 mi
11:20 AM45 °FFog.9 mph100%29.89 "Hg1 mi
10:50 AM45 °FFog.12 mph100%29.89 "Hg1 mi
10:20 AM45 °FDrizzle. Partly sunny.8 mph100%29.92 "Hg1 mi
9:50 AM45 °FDrizzle. Broken clouds.8 mph100%29.92 "Hg1 mi
9:20 AM45 °FDrizzle. Low clouds.8 mph100%29.92 "Hg1 mi
8:50 AM45 °FDrizzle. Low clouds.7 mph100%29.92 "Hg1 mi
8:20 AM45 °FDrizzle. Low clouds.7 mph100%29.92 "Hg1 mi
7:50 AM45 °FDrizzle. Low clouds.7 mph100%29.92 "Hg1 mi
7:20 AM45 °FPassing clouds.8 mph100%29.92 "Hg2 mi
6:50 AM45 °FPartly cloudy.7 mph100%29.92 "Hg2 mi
6:20 AM45 °FPartly cloudy.8 mph100%29.95 "Hg2 mi
5:50 AM45 °FPartly cloudy.8 mph100%29.95 "Hg2 mi
5:20 AM45 °FPartly cloudy.9 mph100%29.95 "Hg3 mi
4:50 AM45 °FLight rain. Partly cloudy.8 mph100%29.95 "Hg4 mi
4:20 AM45 °FLight rain. Partly cloudy.8 mph100%29.95 "Hg4 mi
3:20 AM45 °FLight rain. Partly cloudy.8 mph100%29.98 "Hg4 mi
2:50 AM45 °FLight rain. Partly cloudy.9 mph93%29.98 "Hg4 mi
2:20 AM45 °FLight rain. Partly cloudy.7 mph93%29.98 "Hg4 mi
1:50 AM45 °FLight rain. Partly cloudy.7 mph93%30.01 "Hg4 mi
1:20 AM43 °FLight rain. Partly cloudy.7 mph100%30.01 "Hg5 mi
12:20 AM43 °FRain. Partly cloudy.7 mph100%30.04 "Hg4 mi
11:50 PM
Nov 25
43 °FLight rain. Partly cloudy.7 mph100%30.04 "Hg4 mi
11:20 PM43 °FLight rain. Passing clouds.8 mph100%30.07 "Hg6 mi
10:50 PM43 °FLight rain. Passing clouds.7 mph93%30.07 "Hg5 mi
10:20 PM43 °FPassing clouds.6 mph93%30.07 "HgN/A
Weather by CustomWeather, © 2014

See weather overviewHow to use our weather pages